{"data":{"norad_id":64064,"intl_designator":"2025-107A","name":"STARLINK-11741 [DTC]","alt_names":[],"object_type":"PAYLOAD","status":"ACTIVE","operator":null,"country":"US","launch_date":"2025-05-21","launch_site_code":"AFETR","launch_vehicle":null,"mission":null,"orbit_class":"UNKNOWN","rcs_meters":null,"size_class":null,"mass_kg":null,"dimensions":null,"purposes":["comms"],"wikipedia_slug":null,"has_3d_model":false,"image_url":null,"decayed_at":null,"tle_current":{"epoch":"2026-09-20T13:58:37.234560Z","epoch_age_seconds":136460,"freshness":"FRESH","line1":"1 64064U 25107A   26263.58237540  .00173864  00000+0  13260-2 0  9990","line2":"2 64064  43.0008   4.0201 0001963 260.4302  99.6344 15.70915985 77942","mean_motion":15.70915985,"eccentricity":0.0001963,"inclination_deg":43.0008,"raan_deg":4.0201,"arg_perigee_deg":260.4302,"mean_anomaly_deg":99.6344,"bstar":0.001326,"rev_number":7794,"period_min":91.666264380141,"perigee_km":354.95592532879,"apogee_km":357.59985661499,"semimajor_km":6734.4148909719,"source":"CELESTRAK","updated_at":"2026-09-21T09:00:35.191492Z"}}}